sat.trackr.live / text

‹ back to catalog

STARLINK-3150

NORAD 49452 · 2021-104AW

PAYLOAD ACTIVE UNKNOWN

§ Identity

Operator
Country
US
Launch date
2021-11-13
Launch site
AFETR
Launch vehicle
Mass (kg)
RCS (m²)

Purposes: comms

External: N2YO · Heavens-Above · Gunter

§ Orbital elements

Epoch: 2026-09-20T03:12:10.759104Z

Period
94.01 min
Inclination
53.1609°
Eccentricity
0.0001118
Mean motion
15.31697720 rev/d
Perigee alt
470.0 km
Apogee alt
471.5 km
Semi-major
6,848.9 km
B*
-5.5673e-6
RAAN
53.5173°
Arg perigee
68.0934°
Mean anomaly
292.0186°
Rev number
26,830

§ Raw data

STARLINK-31501 49452U 21104AW  26263.13345786 -.00000538  00000+0 -55673-5 0  99962 49452  53.1609  53.5173 0001118  68.0934 292.0186 15.31697720268303

JSON: /api/v1/satellites/49452 · /tle

For live sub-satellite position, see the globe view (requires WebGL).

§ Visibility from observer

Set your observer location to see the next 7 days of passes ≥ 10°. The values pass through the URL so the page stays shareable.

No JS? Fill the form by hand. The geolocation button needs JavaScript.